Meteo Giornale » Osservazioni meteo Finlandia » Rovaniemi
ore: 08:20 - Osservazioni Meteo Rovaniemi
Lat. 66° 34' N Lon. 25° 50' E Alt. 197 metri s.l.m.
13 °C
Pioggia
Temp. 24 Ore
12 °C
18 °C
Est
9.3 Km/h
Dew point 13 °C
Umidità 100 %
Visibilità 0.6 Km
Il sole sorge alle ore 05:49
Il sole tramonta alle ore 20:43
| Data e Ora | Cielo e Fenomeni | T °C | DP °C | Um. % | Pres. hPa | Vis. km | Vento km/h | |
|---|---|---|---|---|---|---|---|---|
| Oggi h: 08:20 | Pioggia | 13 | 13 | 100 | 1003 | 0.6 | E 9.3 | |
| Oggi h: 07:50 | Pioggia | 13 | 13 | 100 | 1003 | 1 | E 11.1 | |
| Oggi h: 07:20 | Pioggia | 12 | 12 | 100 | 1003 | 2 | E/NE 11.1 | |
| Oggi h: 06:50 | Pioggia | 12 | 12 | 100 | 1003 | 1 | E/NE 11.1 | |
| Oggi h: 06:20 | Pioggia | 12 | 12 | 100 | 1003 | 2 | E/NE 13 | |
| Oggi h: 05:50 | Pioggia | 12 | 12 | 100 | 1003 | 4 | E/NE 11.1 | |
| Oggi h: 05:20 | Pioggia | 12 | 12 | 100 | 1003 | 2 | E/NE 9.3 | |
| Oggi h: 04:50 | Pioggia | 12 | 12 | 100 | 1004 | 0.5 | E/NE 7.4 | |
| Oggi h: 04:20 | Nebbia | 12 | 12 | 100 | 1004 | 0.75 | E 9.3 | |
| Oggi h: 03:50 | Nebbia | 13 | 12 | 93 | 1004 | 0.75 | E 7.4 | |
| Oggi h: 03:20 | Nebbia | 13 | 12 | 93 | 1004 | 0.55 | E/NE 7.4 | |
| Oggi h: 02:50 | Nebbia | 13 | 13 | 100 | 1004 | 0.5 | E 7.4 | |
| Oggi h: 02:20 | Banco di nebbia | 13 | 13 | 100 | 1004 | 1 | E 9.3 | |
| Oggi h: 01:50 | Nebbia | 13 | 13 | 100 | 1004 | 0.75 | E/NE 9.3 | |
| Oggi h: 01:20 | Banco di nebbia | 14 | 13 | 93 | 1004 | 0.9 | E 7.4 | |
| Oggi h: 00:50 | Nebbia | 14 | 13 | 93 | 1004 | 0.7 | E 7.4 | |
| Oggi h: 00:20 | Nebbia | 14 | 13 | 93 | 1005 | 0.6 | E 7.4 | |
| Ieri h: 23:50 | Nebbia | 14 | 14 | 100 | 1005 | 0.7 | E 7.4 | |
| Ieri h: 23:20 | Nebbia | 14 | 14 | 100 | 1005 | 0.75 | N 5.5 | |
| Ieri h: 22:50 | Banco di nebbia | 14 | 14 | 100 | 1005 | 1 | N 5.5 | |
| Ieri h: 22:20 | Sereno | 14 | 13 | 93 | 1005 | 2 | N 5.5 | |
| Ieri h: 21:50 | Sereno | 14 | 14 | 100 | 1005 | 10 | E/SE 9.3 | |
| Ieri h: 21:20 | Poco Nuvoloso | 14 | 13 | 93 | 1005 | 10 | E/SE 7.4 | |
| Ieri h: 20:50 | Sereno | 15 | 13 | 87 | 1005 | 10 | SE 9.3 | |
| Ieri h: 20:20 | Pioggia | 15 | 14 | 93 | 1005 | 10 | SE 7.4 | |
| Ieri h: 19:50 | Poco Nuvoloso | 15 | 14 | 93 | 1005 | 10 | N 5.5 | |
| Ieri h: 19:20 | Sereno | 16 | 14 | 87 | 1005 | 10 | SE 7.4 | |
| Ieri h: 18:50 | Pioggia | 16 | 14 | 87 | 1005 | 10 | N 5.5 | |
| Ieri h: 18:20 | Molto Nuvoloso | 16 | 14 | 87 | 1005 | 10 | S/SE 13 | |
| Ieri h: 17:50 | Nuvoloso | 18 | 12 | 67 | 1005 | 10 | S/SO 7.4 | |
| Ieri h: 17:20 | Molto Nuvoloso | 17 | 13 | 77 | 1005 | 10 | N 5.5 | |
| Ieri h: 16:50 | Molto Nuvoloso | 17 | 13 | 77 | 1005 | 10 | O/SO 7.4 | |
| Ieri h: 16:20 | Molto Nuvoloso | 17 | 13 | 77 | 1005 | 10 | S 11.1 | |
| Ieri h: 15:50 | Molto Nuvoloso | 17 | 13 | 77 | 1005 | 10 | SO 9.3 | |
| Ieri h: 15:20 | Coperto | 16 | 14 | 87 | 1005 | 10 | O/SO 7.4 | |
| Ieri h: 14:50 | Molto Nuvoloso | 17 | 14 | 82 | 1005 | 10 | O 7.4 | |
| Ieri h: 14:20 | Nuvoloso | 17 | 14 | 82 | 1005 | 10 | S 16.7 | |
| Ieri h: 13:50 | Molto Nuvoloso | 16 | 14 | 87 | 1005 | 10 | S/SO 16.7 | |
| Ieri h: 13:20 | Molto Nuvoloso | 15 | 14 | 93 | 1005 | 10 | S 11.1 | |
| Ieri h: 12:50 | Coperto | 15 | 14 | 93 | 1005 | 10 | S 16.7 | |
| Ieri h: 12:20 | Molto Nuvoloso | 15 | 14 | 93 | 1005 | 4 | S 16.7 | |
| Ieri h: 11:50 | Coperto | 15 | 14 | 93 | 1005 | 10 | S 9.3 | |
| Ieri h: 11:20 | Coperto | 15 | 14 | 93 | 1005 | 10 | S 18.5 | |
| Ieri h: 10:50 | Coperto | 15 | 14 | 93 | 1005 | 10 | S 20.3 | |
| Ieri h: 10:20 | Coperto | 14 | 14 | 100 | 1004 | 10 | S 14.8 | |
| Ieri h: 09:50 | Coperto | 14 | 14 | 100 | 1004 | 10 | S 18.5 | |
| Ieri h: 09:20 | Coperto | 14 | 14 | 100 | 1004 | 10 | S 13 | |
| Ieri h: 08:50 | Coperto | 14 | 14 | 100 | 1004 | 10 | S 11.1 | |



